Louisville Bowman, KY

4:41 AM EDT on August 17, 2017 (GMT -0400)
Bowman

Weather History for KLOU - January, 2011

Change the Weather History Date:

Saturday, January 29, 2011

  Actual Average Record
Temperature  
Mean Temperature 43 °F 35 °F  
Max Temperature 55 °F 43 °F 73 °F (1975)
Min Temperature 30 °F 27 °F -4 °F (1977)
Degree Days  
Heating Degree Days 22 30  
Month to date heating degree days 1002 888  
Since 1 July heating degree days 2741 2552  
Cooling Degree Days 0 0  
Month to date cooling degree days 0 0  
Year to date cooling degree days 0 0  
Moisture  
Dew Point 31 °F    
Average Humidity 64    
Maximum Humidity 92    
Minimum Humidity 35    
Precipitation  
Precipitation 0.00 in 0.10 in 0.86 in (1956)
Month to date precipitation 1.34 3.17  
Year to date precipitation 1.34 3.17  
Sea Level Pressure  
Sea Level Pressure 29.95 in    
Wind  
Wind Speed 6 mph (West)    
Max Wind Speed 15 mph    
Max Gust Speed 20 mph    
Visibility 8 miles    
Events      
T = Trace of Precipitation, MM = Missing Value Source: NWS Daily Summary

Daily Weather History Graph

Daily Weather History Graph

Search for Another Location

Airport or City:

Trip Planner

Search our weather history database for the weather conditions in past years. The results will help you decide how hot, cold, wet, or windy it might be!

Date:

Astronomy

Jan. 29, 2011 Rise Set
Actual Time 7:50 AM EST 6:01 PM EST
Civil Twilight 7:22 AM EST 6:29 PM EST
Nautical Twilight 6:50 AM EST 7:01 PM EST
Astronomical Twilight 6:19 AM EST 7:32 PM EST
Moon 4:25 AM EST (1/29) 1:59 PM EST (1/29)
Length of Visible Light 11h 07m
Length of Day
10h 11m
Waning Crescent, 18% of the Moon is Illuminated
Jan 29
Waning Crescent
Feb 2
New
Feb 11
First Quarter
Feb 18
Full
Feb 24
Last Quarter

Hourly Weather History & Observations

Time (EST) Temp. Windchill Dew Point Humidity Pressure Visibility Wind Dir Wind Speed Gust Speed Precip Events Conditions
12:53 AM 32.0 °F - 28.9 °F 88% 29.95 in 6.0 mi Calm Calm - N/A   Clear
1:53 AM 30.9 °F - 28.0 °F 89% 29.93 in 5.0 mi Calm Calm - N/A   Clear
2:53 AM 30.9 °F - 28.0 °F 89% 29.90 in 6.0 mi Calm Calm - N/A   Clear
3:53 AM 32.0 °F 28.7 °F 28.9 °F 88% 29.88 in 6.0 mi SSE 3.5 mph - N/A   Clear
4:53 AM 33.1 °F 27.7 °F 28.9 °F 85% 29.86 in 7.0 mi SSE 5.8 mph - N/A   Clear
5:53 AM 33.1 °F 28.7 °F 28.9 °F 85% 29.85 in 7.0 mi South 4.6 mph - N/A   Clear
6:53 AM 33.1 °F 30.0 °F 28.9 °F 85% 29.85 in 8.0 mi South 3.5 mph - N/A   Clear
7:53 AM 35.1 °F 31.0 °F 30.0 °F 82% 29.86 in 9.0 mi SSW 4.6 mph - N/A   Clear
8:53 AM 41.0 °F 34.3 °F 33.1 °F 73% 29.87 in 10.0 mi WSW 11.5 mph - N/A   Clear
9:53 AM 43.0 °F 38.2 °F 34.0 °F 71% 29.89 in 10.0 mi WSW 8.1 mph - N/A   Clear
10:53 AM 46.0 °F 41.0 °F 34.0 °F 63% 29.91 in 10.0 mi West 10.4 mph - N/A   Clear
11:53 AM 48.0 °F - 34.0 °F 58% 29.94 in 10.0 mi West 10.4 mph - N/A   Clear
12:53 PM 50.0 °F - 34.0 °F 54% 29.92 in 10.0 mi WSW 8.1 mph - N/A   Clear
1:53 PM 53.1 °F - 32.0 °F 45% 29.93 in 10.0 mi West 11.5 mph 17.3 mph N/A   Clear
2:53 PM 55.0 °F - 30.9 °F 40% 29.95 in 10.0 mi West 11.5 mph - N/A   Clear
3:53 PM 55.0 °F - 28.9 °F 37% 29.95 in 10.0 mi West 11.5 mph - N/A   Clear
4:53 PM 50.0 °F - 33.1 °F 52% 29.97 in 10.0 mi North 4.6 mph - N/A   Clear
5:53 PM 46.9 °F - 33.1 °F 59% 29.99 in 10.0 mi North 6.9 mph - N/A   Clear
6:53 PM 42.1 °F 37.1 °F 33.1 °F 70% 30.04 in 8.0 mi North 8.1 mph - N/A   Clear
7:53 PM 39.0 °F 34.0 °F 32.0 °F 76% 30.05 in 7.0 mi North 6.9 mph - N/A   Clear
8:53 PM 36.0 °F 32.1 °F 30.0 °F 79% 30.08 in 7.0 mi NNE 4.6 mph - N/A   Partly Cloudy
9:53 PM 36.0 °F 33.3 °F 28.9 °F 76% 30.07 in 7.0 mi NE 3.5 mph - N/A   Partly Cloudy
10:53 PM 35.1 °F 30.1 °F 28.9 °F 78% 30.09 in 7.0 mi NNE 5.8 mph - N/A   Scattered Clouds
11:53 PM 34.0 °F - 28.0 °F 79% 30.09 in 7.0 mi Calm Calm - N/A   Clear